STARLINK-1417, 45693

Orbit data source: Space-Track

STARLINK-1417, 45693 is a payload satellite owned by SpaceX/Seattle (US) in LEO that was launched on Thu, 04 Jun 2020 UTC via an FALCON 9 launch vehicle from the Air Force Eastern Test Range (AFETR). Payload-class satellites include a variety of spacecraft equipped with specific instruments for various scientific and technological missions. These include communications satellites like Starlink; space stations such as the ISS; scientific satellites like the Hubble; Earth observation satellites from companies like Planet Labs, Umbra, and HawkEye 360; GPS; miniature CubeSats for education and research; and military/defense satellites.

Loading next visibility...
Identifier
45693, 2020-035AN
Orbit
LEO
Country
Flag of USUS
Related business
Manufacturer
SpaceX/Seattle
Mission
Operational Commercial Communications
Bus & Motor
STARLINK, Unknown motor
Mass
260 kg wet, ~248 kg dry
Launch date (UTC)
2020-06-04 (6 years ago)
Launch vehicle
FALCON 9
Launch site
Air Force Eastern Test Range (AFETR)
Object type
Payload
Rocket body
Debris
Shape & HBR
Box + 1 Pan, 10.1 m
Radar Cross Section
13.562 m², Large (>1 m²)

Expand to show TLE details & history
Last TLE update: 14 hours ago

TLE from 14 hours ago
0 STARLINK-1417
1 45693U 20035AN  26035.73593618  .00037462  00000-0  22535-2 0  9996
2 45693  53.0531 203.4357 0006800 140.0199 220.1294 15.10496401313916
Epoch: 2026-02-04T17:39Z
TLE epoch observation values (Epoch: 2026-02-04T17:39:44.885Z)
Latitude
-0.00001°
Longitude
163.60043°
Altitude
539.161 km
Speed
7.592 km/s
True Right ascension
13h 33m 44s
True Declination
0° 00' 00"
Sunlit
Object was in full shadow at epoch
Visualization orbit readout
Latitude
Unknown
Longitude
Unknown
Altitude
Unknown
Speed
Unknown
Apparent Right ascension
Unknown
Apparent Declination
Unknown
Sunlit
N/A
Visualization observer readout
Local Sidereal Time
10:08:14
Azimuth
Unknown
Elevation
Unknown
Doppler factor
Unknown
Orbital elements
Apogee altitude
539.657 km
Perigee altitude
530.256 km
Semi-major axis
6,913.093 km
Eccentricity
0.00068
Inclination
53.0531°
RAAN
203.4357°
Arg. of periapsis
140.0199°
True anomaly
220.07921°
Mean anomaly
220.1294°
Eccentric anomaly
220.1043°
Mean motion
3.77602 °/min
Orbital period
95.34 mins
BSTAR
0.0022535
Loading maneuver chart data...
Computing Atmospheric mass density...

Documentation

Showing up to 5 results
|